Regional Weather Roundup
Issued by NWS

Home | Current Version | Previous Version | Text Only | Print | Product List | Glossary Off
Versions: 1 2 3 4 5 6 7 8 9 10 11 12 13 14 15 16 17 18 19 20 21 22 23 24 25 26 27 28 29 30 31 32 33 34 35 36 37 38 39 40 41 42 43 44 45 46 47 48 49 50

000
ASUS43 KOAX 100910
RWRNE

WEATHER ROUNDUP FOR NEBRASKA
NATIONAL WEATHER SERVICE OMAHA NE
400 AM CDT THU JUL 10 2014

NOTES: SATELLITE DATA IS BEING USED TO AUGMENT CLOUD COVER ABOVE
       12000 FEET.
       "FAIR" INDICATES FEW OR NO CLOUDS BELOW 12,000 FEET WITH NO
       SIGNIFICANT WEATHER AND/OR OBSTRUCTIONS TO VISIBILITY.

  * THESE STATIONS DO NOT REPORT WEATHER SUCH AS RAIN...SNOW OR FOG.

NEZ001>004-019>022-054>056-101000-
NEBRASKA PANHANDLE

CITY           SKY/WX    TMP DP  RH WIND       PRES   REMARKS
SCOTTSBLUFF    CLEAR     62  60  93 SE5       29.92F
ALLIANCE       CLEAR     60  59  96 SE10      29.92F
CHADRON        CLEAR     60  58  92 N3        29.91F
KIMBALL        PTCLDY    60  51  74 W6        29.96F
SIDNEY         CLEAR     57  51  80 SW7       29.95F
$$

NEZ057>060-069>072-079>082-101000-
SOUTHWEST NEBRASKA

CITY           SKY/WX    TMP DP  RH WIND       PRES   REMARKS
NORTH PLATTE   PTCLDY    65  59  81 SE17G23   29.99S
IMPERIAL       CLOUDY    64  61  90 SE24G32   29.97S
LEXINGTON      TSTM      68  63  83 S33G40    29.95R
MCCOOK         CLOUDY    65  62  90 E17G25    29.98F
OGALLALA       PTCLDY    62  59  89 SE13      29.96S
$$

NEZ005>010-023>029-035>040-094-101000-
NORTH CENTRAL NEBRASKA

CITY           SKY/WX    TMP DP  RH WIND       PRES   REMARKS
VALENTINE      CLOUDY    60  60 100 N5        29.94F
AINSWORTH      MOCLDY    62  61  96 SE6       29.96S
BROKEN BOW     CLOUDY    63  62  97 CALM      29.95F
O`NEILL        CLEAR     63  58  85 SE6       29.98R
ORD            MOCLDY    62  60  93 SE8       29.96R
THEDFORD       PTCLDY    67  60  77 SE14      29.97S
$$

NEZ041-046>049-061>064-073>077-083>087-101000-
SOUTH CENTRAL NEBRASKA

CITY           SKY/WX    TMP DP  RH WIND       PRES   REMARKS
GRAND ISLAND   CLOUDY    65  62  90 S13       29.97F
AURORA         CLOUDY    65  64  98 SE5       29.98S
HASTINGS       CLOUDY    67  60  78 S9        29.99R
HEBRON         CLOUDY    68  64  85 S7        29.97S
HOLDREGE       CLOUDY    65  60  86 S25G33    29.96F THUNDER
KEARNEY *      CLOUDY    66  61  82 S25G33    29.93F
YORK           CLOUDY    63  63 100 SE3       30.00R
$$

NEZ011>018-030>034-042>045-101000-
NORTHEAST NEBRASKA

CITY           SKY/WX    TMP DP  RH WIND       PRES   REMARKS
NORFOLK        MOCLDY    63  60  90 CALM      29.98S
ALBION         CLEAR     60  59  97 SE3       29.99R FOG
BLAIR          CLEAR     65  60  84 S3        29.99F
FREMONT        CLEAR     66  63  89 S5        30.00S
TEKAMAH        CLEAR     62  59  90 SE3       29.99F
WAYNE          CLEAR     60  58  95 CALM      30.00R
$$

NEZ050>053-065>068-078-088>093-101000-
SOUTHEAST NEBRASKA

CITY           SKY/WX    TMP DP  RH WIND       PRES   REMARKS
LINCOLN        MOCLDY    67  61  81 S3        30.00R
OMAHA EPPLEY   PTCLDY    67  61  81 SE5       30.00S
BEATRICE       MOCLDY    64  62  93 E5        29.98R
FALLS CITY     CLOUDY    66  62  87 SE6       30.00F
NEBRASKA CITY  MOCLDY    63  63  99 S3        30.00S
PLATTSMOUTH    PTCLDY    65  62  89 SE6       30.00F
$$

NEZ044-045-051>053-067-101000-
OMAHA AREA

CITY           SKY/WX    TMP DP  RH WIND       PRES   REMARKS
OMAHA EPPLEY   PTCLDY    67  61  81 SE5       30.00S
BLAIR          CLEAR     65  60  84 S3        29.99F
FREMONT        CLEAR     66  63  89 S5        30.00S
MILLARD        CLEAR     66  62  86 CALM      29.99S
OFFUTT AFB     CLEAR     63  63 100 E5        29.99F
PLATTSMOUTH    PTCLDY    65  62  89 SE6       30.00F
WAHOO          FAIR      62  59  90 CALM      29.99S
$$



USA.gov is the U.S. government's official web portal to all federal, state and local government web resources and services.